Location: Bijele Vode
(45.2833°N, 16.2000°E)
Time: 14:16:57
(UTC+00:00)

Cosmos 1844 Rocket - Pass Details

Date: 18 September 2020
Orbit: 823 x 846 km, 71.0° (Epoch: 29 October)

Event Time Altitude Azimuth Distance (km) Brightness Sun altitude
Rises 19:38:16 0° 218° (SW) 3,346 5.9 -27.1°
Reaches altitude 10° 19:40:44 10° 222° (SW) 2,418 5.1 -27.5°
Maximum altitude 19:46:10 55° 300° (WNW) 989 3.3 -28.2°
Drops below altitude 10° 19:51:39 10° 19° (NNE) 2,443 5.3 -29.0°
Sets 19:54:10 0° 23° (NNE) 3,384 6.0 -29.4°
